This demonstration page uses our WeatherBlox Daily Observations layout. Learn more.

Left ArrowRight Arrow

Hourly Observations for December 16, 2021

Temp ( °F °C ) Dew Point ( °F °C ) Humidity (%) Winds ( mph kmh ) Pressure ( in mb ) Visibility ( mi km ) Precip ( " mm )
12:56 am 00:56 Mostly Cloudy 31 -0.5 19 -7.5 60 60 WNW 18 30 29.88 1012 10 16 0.00 0.00
1:56 am 01:56 Mostly Clear 30 -0.9 19 -7.3 62 62 WNW 18 30 29.86 1011 10 16 0.00 0.00
2:56 am 02:56 Clear 29 -1.6 18 -7.9 63 63 WNW 18 30 29.90 1013 10 16 0.00 0.00
3:56 am 03:56 Clear 29 -1.6 18 -7.7 64 64 WNW 12 19 29.93 1014 10 16 0.00 0.00
4:56 am 04:56 Clear 29 -1.5 19 -7.2 66 66 WNW 13 20 29.98 1015 10 16 0.00 0.00
5:56 am 05:56 Clear 29 -1.6 18 -7.9 63 63 WNW 9 15 30.00 1016 10 16 0.00 0.00
6:56 am 06:56 Clear 28 -2 17 -8.5 61 61 W 9 15 30.08 1019 10 16 0.00 0.00
7:56 am 07:56 Sunny 28 -2.2 16 -8.9 60 60 W 6 9 30.11 1020 10 16 0.00 0.00
8:56 am 08:56 Sunny 30 -1 17 -8.2 59 59 WSW 6 9 30.15 1021 10 16 0.00 0.00
9:56 am 09:56 undefined 34 1 18 -7.8 52 52 WNW 9 15 30.15 1021 10 16 0.00 0.00
10:56 am 10:56 Sunny 37 2.9 17 -8.5 43 43 WNW 13 20 30.15 1021 10 16 0.00 0.00
11:56 am 11:56 Sunny 40 4.5 17 -8.3 39 39 WNW 9 15 30.13 1020 10 16 0.00 0.00
12:56 pm 12:56 Sunny 43 5.9 18 -8 36 36 WNW 14 22 30.13 1020 10 16 0.00 0.00
1:56 pm 13:56 Sunny 44 6.8 18 -7.6 35 35 WSW 12 19 30.11 1020 10 16 0.00 0.00
2:56 pm 14:56 Sunny 45 7 19 -7.1 36 36 W 9 15 30.11 1020 10 16 0.00 0.00
3:56 pm 15:56 Sunny 44 6.4 20 -6.9 38 38 WNW 6 9 30.11 1020 10 16 0.00 0.00
4:56 pm 16:56 Sunny 40 4.5 19 -7 43 43 NW 5 7 30.13 1020 10 16 0.00 0.00
5:56 pm 17:56 Clear 37 2.8 18 -8 45 45 NNE 3 6 30.13 1020 10 16 0.00 0.00
6:56 pm 18:56 Partly Cloudy 34 1 22 -5.5 62 62 Calm 30.14 1021 10 16 0.00 0.00
7:56 pm 19:56 Clear 32 0.1 19 -7.2 58 58 Calm 30.16 1021 10 16 0.00 0.00
8:56 pm 20:56 Mostly Clear 32 -0.1 21 -6.3 63 63 E 5 7 30.16 1021 10 16 0.00 0.00
9:56 pm 21:56 Mostly Cloudy 31 -0.7 20 -6.7 64 64 Calm 30.16 1021 10 16 0.00 0.00
10:56 pm 22:56 Partly Cloudy 29 -1.6 20 -6.4 70 70 Calm 30.16 1021 10 16 0.00 0.00
11:56 pm 23:56 Mostly Cloudy 28 -2.3 22 -5.6 78 78 E 5 7 30.15 1021 10 16 0.00 0.00

Powered by AerisWeather